| time (UTC) | temp F | wind direction | speed MPH | gust MPH | rain 1hr in | rain 24hr in | rain mn in | humidity % | barometer mb |
| 20260504004227 | 57 | 75 | 11.0 | 19.0 | 0.00 | 0.00 | 0.00 | 79 | 1024.3 |
| 20260504004048 | 57 | 58 | 15.0 | 19.0 | 0.00 | 0.00 | 0.00 | 79 | 1024.1 |
| 20260504003226 | 57 | 50 | 11.0 | 18.0 | 0.00 | 0.00 | 0.00 | 78 | 1024.2 |
| 20260504002726 | 57 | 43 | 10.0 | 18.0 | 0.00 | 0.00 | 0.00 | 78 | 1024.2 |
| 20260504002222 | 57 | 33 | 6.0 | 10.0 | 0.00 | 0.00 | 0.00 | 78 | 1024.3 |
| 20260504001720 | 57 | 36 | 5.0 | 10.0 | 0.00 | 0.00 | 0.00 | 78 | 1024.3 |
| 20260504001218 | 57 | 72 | 6.0 | 11.0 | 0.00 | 0.00 | 0.00 | 77 | 1024.3 |
| 20260504000836 | 58 | 62 | 7.0 | 11.0 | 0.00 | 0.00 | 0.00 | 77 | 1024.3 |
| 20260503235715 | 58 | 81 | 7.0 | 16.0 | 0.00 | 0.00 | 0.00 | 75 | 1024.3 |
| 20260503235211 | 58 | 93 | 11.0 | 17.0 | 0.00 | 0.00 | 0.00 | 75 | 1024.3 |
| 20260503234709 | 58 | 98 | 12.0 | 18.0 | 0.00 | 0.00 | 0.00 | 76 | 1024.2 |
| 20260503234208 | 58 | 91 | 14.0 | 21.0 | 0.00 | 0.00 | 0.00 | 77 | 1024.2 |
| 20260503233707 | 58 | 81 | 12.0 | 21.0 | 0.00 | 0.00 | 0.00 | 77 | 1024.1 |
| 20260503233205 | 58 | 67 | 16.0 | 22.0 | 0.00 | 0.00 | 0.00 | 79 | 1024.1 |
| 20260503233017 | 58 | 30 | 16.0 | 22.0 | 0.00 | 0.00 | 0.00 | 79 | 1024.0 |
| 20260503232207 | 58 | 60 | 14.0 | 20.0 | 0.00 | 0.00 | 0.00 | 79 | 1024.0 |
| 20260503231705 | 58 | 48 | 9.0 | 15.0 | 0.00 | 0.00 | 0.00 | 80 | 1024.1 |
| 20260503231309 | 58 | 68 | 8.0 | 15.0 | 0.00 | 0.00 | 0.00 | 79 | 1024.0 |
| 20260503230208 | 58 | 51 | 5.0 | 10.0 | 0.00 | 0.00 | 0.00 | 79 | 1024.1 |
| 20260503225708 | 58 | 64 | 5.0 | 12.0 | 0.00 | 0.00 | 0.00 | 79 | 1024.1 |
| 20260503225207 | 58 | 61 | 8.0 | 13.0 | 0.00 | 0.00 | 0.00 | 79 | 1024.1 |
| 20260503224704 | 58 | 93 | 8.0 | 17.0 | 0.00 | 0.00 | 0.00 | 79 | 1024.0 |
| 20260503224520 | 58 | 85 | 12.0 | 20.0 | 0.00 | 0.00 | 0.00 | 79 | 1024.1 |
| 20260503223658 | 58 | 51 | 13.0 | 20.0 | 0.00 | 0.00 | 0.00 | 79 | 1023.9 |
| 20260503223158 | 58 | 86 | 14.0 | 22.0 | 0.00 | 0.00 | 0.00 | 78 | 1023.8 |
| 20260503222700 | 59 | 79 | 15.0 | 22.0 | 0.00 | 0.00 | 0.00 | 78 | 1023.8 |
| 20260503222200 | 59 | 79 | 16.0 | 23.0 | 0.00 | 0.00 | 0.00 | 79 | 1023.7 |
| 20260503221659 | 59 | 65 | 13.0 | 23.0 | 0.00 | 0.00 | 0.00 | 79 | 1023.6 |
| 20260503221155 | 59 | 71 | 15.0 | 21.0 | 0.00 | 0.00 | 0.00 | 78 | 1023.6 |
| 20260503220658 | 59 | 69 | 15.0 | 21.0 | 0.00 | 0.00 | 0.00 | 78 | 1023.5 |
| 20260503220154 | 59 | 67 | 13.0 | 21.0 | 0.00 | 0.00 | 0.00 | 78 | 1023.5 |
| 20260503215656 | 59 | 50 | 14.0 | 20.0 | 0.00 | 0.00 | 0.00 | 78 | 1023.4 |
| 20260503215155 | 59 | 30 | 15.0 | 20.0 | 0.00 | 0.00 | 0.00 | 78 | 1023.4 |
| 20260503214654 | 59 | 81 | 11.0 | 18.0 | 0.00 | 0.00 | 0.00 | 78 | 1023.4 |
| 20260503214250 | 59 | 68 | 11.0 | 18.0 | 0.00 | 0.00 | 0.00 | 78 | 1023.3 |
| 20260503213143 | 59 | 78 | 12.0 | 19.0 | 0.00 | 0.00 | 0.00 | 77 | 1023.3 |
| 20260503212957 | 59 | 75 | 12.0 | 16.0 | 0.00 | 0.00 | 0.00 | 77 | 1023.2 |
| 20260503212135 | 59 | 46 | 13.0 | 18.0 | 0.00 | 0.00 | 0.00 | 77 | 1023.2 |
| 20260503211637 | 59 | 37 | 13.0 | 18.0 | 0.00 | 0.00 | 0.00 | 78 | 1023.1 |
| 20260503211135 | 59 | 50 | 13.0 | 18.0 | 0.00 | 0.00 | 0.00 | 78 | 1023.2 |
| 20260503210636 | 59 | 48 | 15.0 | 19.0 | 0.00 | 0.00 | 0.00 | 78 | 1023.1 |
| 20260503210134 | 59 | 47 | 13.0 | 20.0 | 0.00 | 0.00 | 0.00 | 79 | 1023.0 |
| 20260503205635 | 59 | 62 | 14.0 | 21.0 | 0.00 | 0.00 | 0.00 | 79 | 1022.9 |
| 20260503205136 | 59 | 55 | 16.0 | 22.0 | 0.00 | 0.00 | 0.00 | 79 | 1022.9 |
| 20260503204635 | 59 | 51 | 17.0 | 22.0 | 0.00 | 0.00 | 0.00 | 79 | 1022.7 |
| 20260503204134 | 59 | 48 | 17.0 | 20.0 | 0.00 | 0.00 | 0.00 | 78 | 1022.6 |
| 20260503203958 | 59 | 41 | 14.0 | 19.0 | 0.00 | 0.00 | 0.00 | 77 | 1022.6 |
| 20260503203135 | 59 | 51 | 15.0 | 19.0 | 0.00 | 0.00 | 0.00 | 76 | 1022.5 |
| 20260503202634 | 59 | 65 | 12.0 | 21.0 | 0.00 | 0.00 | 0.00 | 76 | 1022.6 |
| 20260503202133 | 59 | 53 | 14.0 | 21.0 | 0.00 | 0.00 | 0.00 | 76 | 1022.6 |
| 20260503201949 | 60 | 62 | 12.0 | 20.0 | 0.00 | 0.00 | 0.00 | 75 | 1022.6 |
| 20260503201132 | 60 | 58 | 12.0 | 18.0 | 0.00 | 0.00 | 0.00 | 76 | 1022.5 |
| 20260503200632 | 60 | 54 | 9.0 | 18.0 | 0.00 | 0.00 | 0.00 | 77 | 1022.5 |
| 20260503200134 | 60 | 68 | 11.0 | 19.0 | 0.00 | 0.00 | 0.00 | 76 | 1022.5 |
| 20260503195634 | 60 | 72 | 11.0 | 20.0 | 0.00 | 0.00 | 0.00 | 76 | 1022.6 |
| 20260503195134 | 60 | 71 | 12.0 | 21.0 | 0.00 | 0.00 | 0.00 | 77 | 1022.6 |
| 20260503194634 | 60 | 77 | 16.0 | 21.0 | 0.00 | 0.00 | 0.00 | 76 | 1022.5 |
| 20260503194128 | 60 | 47 | 13.0 | 24.0 | 0.00 | 0.00 | 0.00 | 77 | 1022.5 |
| 20260503193627 | 60 | 62 | 15.0 | 27.0 | 0.00 | 0.00 | 0.00 | 77 | 1022.5 |
| 20260503193123 | 60 | 77 | 17.0 | 27.0 | 0.00 | 0.00 | 0.00 | 77 | 1022.4 |
| 20260503192621 | 60 | 54 | 18.0 | 23.0 | 0.00 | 0.00 | 0.00 | 77 | 1022.4 |
| 20260503192120 | 60 | 61 | 15.0 | 26.0 | 0.00 | 0.00 | 0.00 | 78 | 1022.3 |
| 20260503191620 | 60 | 82 | 17.0 | 26.0 | 0.00 | 0.00 | 0.00 | 77 | 1022.4 |
| 20260503191116 | 60 | 37 | 18.0 | 26.0 | 0.00 | 0.00 | 0.00 | 77 | 1022.4 |
| 20260503190617 | 60 | 62 | 19.0 | 26.0 | 0.00 | 0.00 | 0.00 | 77 | 1022.4 |
| 20260503190117 | 60 | 55 | 19.0 | 24.0 | 0.00 | 0.00 | 0.00 | 78 | 1022.4 |
| 20260503185617 | 60 | 64 | 12.0 | 22.0 | 0.00 | 0.00 | 0.00 | 77 | 1022.4 |
| 20260503185121 | 60 | 36 | 12.0 | 22.0 | 0.00 | 0.00 | 0.00 | 77 | 1022.5 |
| 20260503184614 | 60 | 46 | 15.0 | 24.0 | 0.00 | 0.00 | 0.00 | 77 | 1022.6 |
| 20260503184111 | 60 | 34 | 17.0 | 24.0 | 0.00 | 0.00 | 0.00 | 77 | 1022.5 |
| 20260503183612 | 61 | 67 | 14.0 | 24.0 | 0.00 | 0.00 | 0.00 | 78 | 1022.3 |
| 20260503183108 | 61 | 64 | 17.0 | 26.0 | 0.00 | 0.00 | 0.00 | 77 | 1022.3 |
| 20260503182607 | 62 | 44 | 20.0 | 26.0 | 0.00 | 0.00 | 0.00 | 76 | 1022.2 |
| 20260503182104 | 62 | 79 | 16.0 | 23.0 | 0.00 | 0.00 | 0.00 | 76 | 1022.2 |
| 20260503181601 | 62 | 30 | 19.0 | 26.0 | 0.00 | 0.00 | 0.00 | 76 | 1022.0 |
| 20260503181059 | 62 | 48 | 18.0 | 26.0 | 0.00 | 0.00 | 0.00 | 76 | 1022.0 |
| 20260503180558 | 62 | 38 | 16.0 | 24.0 | 0.00 | 0.00 | 0.00 | 77 | 1022.0 |
| 20260503180057 | 62 | 44 | 14.0 | 22.0 | 0.00 | 0.00 | 0.00 | 78 | 1022.1 |
| 20260503175553 | 62 | 86 | 16.0 | 22.0 | 0.00 | 0.00 | 0.00 | 77 | 1022.1 |
| 20260503175053 | 62 | 43 | 17.0 | 24.0 | 0.00 | 0.00 | 0.00 | 77 | 1022.1 |
| 20260503174917 | 62 | 43 | 18.0 | 24.0 | 0.00 | 0.00 | 0.00 | 76 | 1022.1 |
| 20260503174052 | 62 | 51 | 13.0 | 20.0 | 0.00 | 0.00 | 0.00 | 76 | 1022.2 |
| 20260503173553 | 62 | 57 | 14.0 | 20.0 | 0.00 | 0.00 | 0.00 | 75 | 1022.2 |
| 20260503173051 | 62 | 67 | 13.0 | 18.0 | 0.00 | 0.00 | 0.00 | 74 | 1022.3 |
| 20260503172544 | 62 | 102 | 12.0 | 22.0 | 0.00 | 0.00 | 0.00 | 74 | 1022.2 |
| 20260503172408 | 62 | 77 | 14.0 | 26.0 | 0.00 | 0.00 | 0.00 | 73 | 1022.2 |
| 20260503171538 | 62 | 67 | 20.0 | 27.0 | 0.00 | 0.00 | 0.00 | 72 | 1022.0 |
| 20260503171035 | 63 | 74 | 21.0 | 28.0 | 0.00 | 0.00 | 0.00 | 71 | 1021.9 |
| 20260503170535 | 63 | 58 | 18.0 | 28.0 | 0.00 | 0.00 | 0.00 | 73 | 1021.8 |
| 20260503151000 | 62 | 62 | 19.0 | 23.0 | 0.00 | 0.00 | 0.00 | 78 | 1022.6 |
| 20260503150455 | 62 | 88 | 17.0 | 27.0 | 0.00 | 0.00 | 0.00 | 76 | 1022.6 |
| 20260503130932 | 62 | 69 | 14.0 | 22.0 | 0.00 | 0.00 | 0.00 | 75 | 1022.8 |
| 20260503130434 | 63 | 64 | 17.0 | 26.0 | 0.00 | 0.00 | 0.00 | 75 | 1022.7 |
| 20260503090343 | 61 | 68 | 11.0 | 17.0 | 0.00 | 0.00 | 0.00 | 75 | 1021.9 |
| 20260503081440 | 60 | 69 | 12.0 | 21.0 | 0.00 | 0.00 | 0.00 | 77 | 1021.7 |
| 20260503080329 | 59 | 60 | 13.0 | 19.0 | 0.00 | 0.00 | 0.00 | 77 | 1021.6 |
| 20260503072813 | 58 | 60 | 13.0 | 19.0 | 0.00 | 0.00 | 0.00 | 78 | 1021.2 |
| 20260503072311 | 58 | 60 | 15.0 | 20.0 | 0.00 | 0.00 | 0.00 | 78 | 1021.2 |
| 20260503071813 | 58 | 57 | 13.0 | 20.0 | 0.00 | 0.00 | 0.00 | 78 | 1021.2 |
| 20260503071317 | 58 | 69 | 15.0 | 20.0 | 0.00 | 0.00 | 0.00 | 78 | 1021.1 |
| 20260503070804 | 58 | 55 | 14.0 | 19.0 | 0.00 | 0.00 | 0.00 | 77 | 1021.1 |
| 20260503070300 | 58 | 44 | 14.0 | 20.0 | 0.00 | 0.00 | 0.00 | 78 | 1021.1 |
| 20260503060240 | 58 | 36 | 12.0 | 20.0 | 0.00 | 0.00 | 0.00 | 80 | 1020.8 |
| 20260503054734 | 58 | 50 | 14.0 | 20.0 | 0.00 | 0.00 | 0.00 | 80 | 1020.9 |
| 20260503054612 | 58 | 53 | 12.0 | 16.0 | 0.00 | 0.00 | 0.00 | 80 | 1020.9 |
| 20260503053736 | 58 | 57 | 10.0 | 15.0 | 0.00 | 0.00 | 0.00 | 80 | 1021.0 |
| 20260503053235 | 58 | 58 | 9.0 | 15.0 | 0.00 | 0.00 | 0.00 | 79 | 1021.0 |
| 20260503052736 | 58 | 58 | 9.0 | 18.0 | 0.00 | 0.00 | 0.00 | 80 | 1021.0 |
| 20260503052559 | 58 | 30 | 12.0 | 20.0 | 0.00 | 0.00 | 0.00 | 80 | 1020.9 |
| 20260503051739 | 58 | 48 | 13.0 | 21.0 | 0.00 | 0.00 | 0.00 | 80 | 1020.9 |
| 20260503051234 | 58 | 60 | 16.0 | 21.0 | 0.00 | 0.00 | 0.00 | 80 | 1020.8 |
| 20260503050733 | 58 | 37 | 11.0 | 20.0 | 0.00 | 0.00 | 0.00 | 80 | 1020.8 |
| 20260503050232 | 58 | 51 | 17.0 | 20.0 | 0.00 | 0.00 | 0.00 | 80 | 1020.7 |
| 20260503045732 | 58 | 44 | 12.0 | 20.0 | 0.00 | 0.00 | 0.00 | 80 | 1020.8 |
| 20260503045320 | 58 | 46 | 14.0 | 20.0 | 0.00 | 0.00 | 0.00 | 79 | 1020.8 |
| 20260503044229 | 58 | 51 | 14.0 | 19.0 | 0.00 | 0.00 | 0.00 | 79 | 1020.7 |
| 20260503043721 | 58 | 64 | 13.0 | 18.0 | 0.00 | 0.00 | 0.00 | 79 | 1020.8 |
| 20260503043217 | 58 | 65 | 12.0 | 18.0 | 0.00 | 0.00 | 0.00 | 79 | 1020.8 |
| 20260503042716 | 58 | 53 | 13.0 | 18.0 | 0.00 | 0.00 | 0.00 | 79 | 1020.8 |
| 20260503042526 | 58 | 51 | 13.0 | 21.0 | 0.00 | 0.00 | 0.00 | 79 | 1020.8 |
| 20260503042034 | 59 | 53 | 15.0 | 21.0 | 0.00 | 0.00 | 0.00 | 79 | 1020.8 |
| 20260503041205 | 59 | 53 | 14.0 | 21.0 | 0.00 | 0.00 | 0.00 | 79 | 1020.9 |
| 20260503040706 | 59 | 64 | 12.0 | 18.0 | 0.00 | 0.00 | 0.00 | 79 | 1020.9 |
| 20260503040205 | 59 | 105 | 14.0 | 18.0 | 0.00 | 0.00 | 0.00 | 78 | 1020.8 |
| 20260503035706 | 59 | 40 | 12.0 | 18.0 | 0.00 | 0.00 | 0.00 | 79 | 1020.8 |
| 20260503035205 | 59 | 67 | 11.0 | 17.0 | 0.00 | 0.00 | 0.00 | 79 | 1021.0 |
| 20260503034703 | 59 | 57 | 8.0 | 15.0 | 0.00 | 0.00 | 0.00 | 79 | 1021.0 |
| 20260503034204 | 59 | 88 | 11.0 | 18.0 | 0.00 | 0.00 | 0.00 | 79 | 1021.0 |
| 20260503033705 | 59 | 72 | 13.0 | 23.0 | 0.00 | 0.00 | 0.00 | 79 | 1020.9 |
| 20260503033204 | 59 | 65 | 16.0 | 23.0 | 0.00 | 0.00 | 0.00 | 79 | 1020.7 |
| 20260503032704 | 59 | 48 | 14.0 | 20.0 | 0.00 | 0.00 | 0.00 | 79 | 1020.7 |
| 20260503032200 | 59 | 44 | 12.0 | 19.0 | 0.00 | 0.00 | 0.00 | 80 | 1020.8 |
| 20260503031659 | 59 | 54 | 10.0 | 20.0 | 0.00 | 0.00 | 0.00 | 80 | 1020.8 |
| 20260503031156 | 59 | 64 | 17.0 | 24.0 | 0.00 | 0.00 | 0.00 | 80 | 1020.9 |
| 20260503030659 | 59 | 48 | 16.0 | 24.0 | 0.00 | 0.00 | 0.00 | 80 | 1020.9 |
| 20260503030157 | 60 | 58 | 13.0 | 21.0 | 0.00 | 0.00 | 0.00 | 80 | 1020.8 |
| 20260503030018 | 60 | 86 | 9.0 | 19.0 | 0.00 | 0.00 | 0.00 | 80 | 1020.9 |
| 20260503025153 | 60 | 68 | 14.0 | 21.0 | 0.00 | 0.00 | 0.00 | 79 | 1021.0 |
| 20260503024651 | 60 | 78 | 12.0 | 21.0 | 0.00 | 0.00 | 0.00 | 79 | 1021.0 |
| 20260503024149 | 60 | 84 | 14.0 | 22.0 | 0.00 | 0.00 | 0.00 | 80 | 1021.0 |
| 20260503023645 | 60 | 30 | 15.0 | 26.0 | 0.00 | 0.00 | 0.00 | 80 | 1021.0 |
| 20260503023141 | 59 | 74 | 18.0 | 26.0 | 0.00 | 0.00 | 0.00 | 81 | 1020.9 |
| 20260503022640 | 59 | 38 | 15.0 | 20.0 | 0.00 | 0.00 | 0.00 | 82 | 1020.9 |
| 20260503022138 | 60 | 41 | 11.0 | 17.0 | 0.00 | 0.00 | 0.00 | 82 | 1021.0 |
| 20260503021636 | 60 | 54 | 10.0 | 20.0 | 0.00 | 0.00 | 0.00 | 82 | 1021.2 |
| 20260503021135 | 60 | 51 | 14.0 | 20.0 | 0.00 | 0.00 | 0.00 | 82 | 1021.2 |
| 20260503020954 | 60 | 57 | 15.0 | 20.0 | 0.00 | 0.00 | 0.00 | 82 | 1021.3 |
| 20260503020453 | 60 | 41 | 14.0 | 20.0 | 0.00 | 0.00 | 0.00 | 82 | 1021.3 |
| 20260503015639 | 60 | 65 | 11.0 | 16.0 | 0.00 | 0.00 | 0.00 | 82 | 1021.4 |
| 20260503015135 | 60 | 57 | 8.0 | 19.0 | 0.00 | 0.00 | 0.00 | 83 | 1021.4 |
| 20260503014632 | 60 | 72 | 14.0 | 22.0 | 0.00 | 0.00 | 0.00 | 83 | 1021.6 |
| 20260503014131 | 60 | 71 | 12.0 | 22.0 | 0.00 | 0.00 | 0.00 | 83 | 1021.6 |
| 20260503013632 | 60 | 67 | 12.0 | 20.0 | 0.00 | 0.00 | 0.00 | 83 | 1021.4 |
| 20260503013132 | 60 | 58 | 13.0 | 22.0 | 0.00 | 0.00 | 0.00 | 83 | 1021.4 |
| 20260503012630 | 60 | 60 | 14.0 | 22.0 | 0.00 | 0.00 | 0.00 | 83 | 1021.4 |
| 20260503012234 | 60 | 43 | 10.0 | 18.0 | 0.00 | 0.00 | 0.00 | 82 | 1021.6 |
| 20260503011447 | 60 | 72 | 13.0 | 20.0 | 0.00 | 0.00 | 0.00 | 82 | 1021.6 |
| 20260503010630 | 60 | 57 | 12.0 | 20.0 | 0.00 | 0.00 | 0.00 | 82 | 1021.5 |
| 20260503010131 | 60 | 67 | 15.0 | 22.0 | 0.00 | 0.00 | 0.00 | 82 | 1021.4 |
| 20260503005631 | 60 | 71 | 17.0 | 22.0 | 0.00 | 0.00 | 0.00 | 82 | 1021.4 |
| 20260503005127 | 60 | 62 | 13.0 | 21.0 | 0.00 | 0.00 | 0.00 | 82 | 1021.5 |